Wolf Point, MT

9:23 PM MST on December 12, 2017 (GMT -0700)
Clayton

Weather History for KOLF - January, 2013

Change the Weather History Date:

Saturday, January 5, 2013

  Actual Average Record
Temperature  
Mean Temperature 10 °F -  
Max Temperature 21 °F 23 °F 56 °F (2012)
Min Temperature -1 °F 1 °F -36 °F (2005)
Degree Days  
Heating Degree Days 55    
Cooling Degree Days 0    
Moisture  
Dew Point 8 °F    
Average Humidity 80    
Maximum Humidity 92    
Minimum Humidity 71    
Precipitation  
Precipitation 0.00 in 0.01 in 0.05 in (1999)
Month to date precipitation T 0.06  
Year to date precipitation T 0.06  
Sea Level Pressure  
Sea Level Pressure 30.26 in    
Wind  
Wind Speed 8 mph (WSW)    
Max Wind Speed 17 mph    
Max Gust Speed -    
Visibility 10 miles    
Events      
T = Trace of Precipitation, MM = Missing Value Source: NWS Daily Summary

Daily Weather History Graph

Daily Weather History Graph

Search for Another Location

Airport or City:

Trip Planner

Search our weather history database for the weather conditions in past years. The results will help you decide how hot, cold, wet, or windy it might be!

Date:

Astronomy

Jan. 05, 2013 Rise Set
Actual Time 7:51 AM MST 4:24 PM MST
Civil Twilight 7:15 AM MST 5:00 PM MST
Nautical Twilight 6:36 AM MST 5:39 PM MST
Astronomical Twilight 5:59 AM MST 6:17 PM MST
Moon 12:45 AM MST (1/5) 11:29 AM MST (1/5)
Length of Visible Light 9h 44m
Length of Day
8h 32m
Last Quarter, 43% of the Moon is Illuminated
Jan 5
Last Quarter
Jan 11
New
Jan 18
First Quarter
Jan 26
Full
Feb 3
Last Quarter

Hourly Weather History & Observations

Time (MST) Temp. Windchill Dew Point Humidity Pressure Visibility Wind Dir Wind Speed Gust Speed Precip Events Conditions
12:53 AM 19.0 °F 10.0 °F 10.9 °F 71% 30.17 in 10.0 mi West 6.9 mph - N/A   Scattered Clouds
1:53 AM 18.0 °F 5.4 °F 10.9 °F 74% 30.18 in 10.0 mi West 11.5 mph - N/A   Scattered Clouds
2:53 AM 16.0 °F 4.4 °F 10.0 °F 77% 30.22 in 10.0 mi WSW 9.2 mph - N/A   Partly Cloudy
3:53 AM 12.9 °F 0.7 °F 8.1 °F 81% 30.24 in 10.0 mi West 9.2 mph - N/A   Clear
4:53 AM 10.9 °F -3.4 °F 6.1 °F 81% 30.25 in 10.0 mi WSW 11.5 mph - N/A   Clear
5:53 AM 10.4 °F -2.4 °F 6.8 °F 85% 30.14 in 10.0 mi WSW 9.2 mph - N/A   Clear
6:53 AM 14.0 °F - 9.0 °F 80% 30.29 in 10.0 mi Calm Calm - N/A   Clear
7:53 AM 10.0 °F -2.9 °F 6.1 °F 84% 30.32 in 9.0 mi SW 9.2 mph - N/A   Clear
8:53 AM 10.0 °F 1.8 °F 8.1 °F 92% 30.29 in 7.0 mi WSW 4.6 mph - N/A   Clear
9:53 AM 10.9 °F 2.9 °F 7.0 °F 84% 30.30 in 10.0 mi WSW 4.6 mph - N/A   Clear
10:53 AM 15.1 °F 4.2 °F 9.0 °F 77% 30.29 in 10.0 mi West 8.1 mph - N/A   Clear
11:53 AM 17.1 °F 8.7 °F 10.0 °F 74% 30.27 in 10.0 mi WSW 5.8 mph - N/A   Clear
12:53 PM 19.0 °F 7.5 °F 12.0 °F 74% 30.26 in 10.0 mi WSW 10.4 mph - N/A   Clear
1:53 PM 19.9 °F 7.9 °F 12.9 °F 74% 30.25 in 10.0 mi WSW 11.5 mph - N/A   Clear
2:53 PM 21.0 °F 6.6 °F 12.9 °F 71% 30.25 in 10.0 mi WSW 17.3 mph - N/A   Clear
3:53 PM 19.9 °F 8.6 °F 12.9 °F 74% 30.27 in 10.0 mi WSW 10.4 mph - N/A   Clear
4:53 PM 19.0 °F 6.8 °F 12.0 °F 74% 30.28 in 10.0 mi West 11.5 mph - N/A   Clear
5:53 PM 15.1 °F 3.3 °F 10.0 °F 80% 30.29 in 10.0 mi WSW 9.2 mph - N/A   Clear
6:53 PM 12.9 °F 2.6 °F 9.0 °F 84% 30.28 in 10.0 mi SW 6.9 mph - N/A   Clear
7:53 PM 12.9 °F 2.6 °F 9.0 °F 84% 30.29 in 10.0 mi SW 6.9 mph - N/A   Clear
8:53 PM 10.0 °F 0.4 °F 8.1 °F 92% 30.28 in 9.0 mi WSW 5.8 mph - N/A   Clear
9:53 PM 7.0 °F - 5.0 °F 92% 30.29 in 8.0 mi Calm Calm - N/A   Clear
10:53 PM 1.9 °F - -2.0 °F 83% 30.28 in 10.0 mi Calm Calm - N/A   Clear
11:53 PM -0.0 °F - -2.9 °F 88% 30.25 in 10.0 mi Calm Calm - N/A   Clear